Location: Unspecified
(0.0000°N, 0.0000°E)
Time: 01:50:23
(UTC+00:00)

SR - All Passes

Search period start: 26 May 2019 00:00
Search period end: 05 June 2019 00:00
Orbit: 583 x 873 km, 66.7° (Epoch: 25 May)

Date Brightness Start Highest point End Pass type
(mag) Time Alt. Az. Time Alt. Az. Time Alt. Az.
26 May - 08:17:43 10° S 08:22:19 43° ESE 08:26:35 10° NE daylight
26 May - 20:42:01 10° NNW 20:47:16 72° WSW 20:52:57 10° SSE visible
27 May - 07:29:46 10° SSE 07:32:40 16° ESE 07:35:26 10° ENE daylight
27 May - 09:10:42 10° SW 09:14:29 24° WNW 09:18:04 10° NNW daylight
27 May - 19:52:45 10° N 19:57:44 45° ENE 20:03:07 10° SE visible
27 May - 21:37:26 10° W 21:39:45 13° WSW 21:42:06 10° SW visible
28 May - 08:20:14 10° SSW 08:25:01 70° WNW 08:29:26 10° NNE daylight
28 May - 19:04:44 10° NNE 19:08:17 18° ENE 19:11:58 10° ESE visible
28 May - 20:45:21 10° NW 20:50:03 31° WSW 20:55:02 10° S visible
29 May - 07:30:58 10° S 07:35:28 39° ESE 07:39:38 10° NE daylight
29 May - 19:55:09 10° NNW 20:00:26 78° WSW 20:06:09 10° SSE visible
30 May - 06:43:14 10° SE 06:45:48 14° ESE 06:48:16 10° E daylight
30 May - 08:23:44 10° SW 08:27:38 26° WNW 08:31:19 10° NNW daylight
30 May - 19:05:58 10° N 19:10:55 41° ENE 19:16:14 10° SE visible
30 May - 20:50:10 10° W 20:52:53 14° WSW 20:55:43 10° SW visible
31 May - 07:33:23 10° SSW 07:38:10 77° WNW 07:42:34 10° NNE daylight
31 May - 18:18:07 10° NNE 18:21:27 17° ENE 18:24:55 10° ESE visible
31 May - 19:58:24 10° NW 20:03:13 34° WSW 20:08:20 10° S visible
01 Jun - 06:44:14 10° S 06:48:37 35° ESE 06:52:41 10° NE daylight
01 Jun - 19:08:17 10° NNW 19:13:37 85° WSW 19:19:21 10° SSE visible
02 Jun - 05:56:47 10° SE 05:58:56 13° ESE 06:01:02 10° E daylight
02 Jun - 07:36:47 10° SW 07:40:47 28° WNW 07:44:34 10° NNW daylight
02 Jun - 18:19:12 10° N 18:24:06 38° ENE 18:29:20 10° SE visible
02 Jun - 20:02:58 10° WNW 20:06:03 15° WSW 20:09:15 10° SSW visible
03 Jun - 06:46:33 10° SSW 06:51:19 84° WNW 06:55:43 10° NNE daylight
03 Jun - 17:31:31 10° NE 17:34:37 16° ENE 17:37:50 10° ESE daylight
03 Jun - 19:11:26 10° NW 19:16:22 37° WSW 19:21:37 10° S visible
04 Jun - 05:57:29 10° S 06:01:45 32° ESE 06:05:43 10° NE daylight
04 Jun - 07:42:30 10° W 07:43:24 10° WNW 07:44:17 10° WNW daylight
04 Jun - 18:21:26 10° NNW 18:26:47 89° ENE 18:32:32 10° SSE visible
